RYR6SX LDDU-LIBD

Flight info

Callsign RYR6SX
Flight time N/A
Altitude 21000
Route AIOSA1W/11 AIOSA DCT BANAV
Aircraft B38M/M-SDE1FGHILORVWXY/HB1

Departure

Time N/A
Airport Dubrovnik Ruđer Bošković Airport (LDDU)

Arrival

Time 2026-04-29 14:48
Airport Bari Karol Wojtyła International Airport (LIBD)
Time Latitude Longitude Altitude Speed Heading
2026-04-29 14:29 41.54341 16.76924 22921 ft 401 kts 225°
2026-04-29 14:29 41.52316 16.74426 22506 ft 393 kts 225°
2026-04-29 14:30 41.50322 16.71969 22077 ft 387 kts 225°
2026-04-29 14:30 41.48354 16.69545 21531 ft 385 kts 225°
2026-04-29 14:30 41.46394 16.67134 21023 ft 382 kts 225°
2026-04-29 14:30 41.44443 16.64736 20516 ft 380 kts 225°
2026-04-29 14:31 41.43129 16.63121 20106 ft 380 kts 225°
2026-04-29 14:31 41.40556 16.59964 19330 ft 381 kts 225°
2026-04-29 14:31 41.39269 16.58385 18949 ft 381 kts 225°
2026-04-29 14:31 41.37324 16.56002 18384 ft 381 kts 225°
2026-04-29 14:32 41.35372 16.53612 17749 ft 380 kts 225°
2026-04-29 14:32 41.33423 16.51227 17110 ft 380 kts 224°
2026-04-29 14:32 41.31477 16.48849 16480 ft 380 kts 224°
2026-04-29 14:32 41.29532 16.46473 15870 ft 380 kts 224°
2026-04-29 14:33 41.27589 16.44102 15266 ft 378 kts 224°
2026-04-29 14:33 41.25667 16.41760 14634 ft 369 kts 224°
2026-04-29 14:33 41.23795 16.39478 14014 ft 362 kts 224°
2026-04-29 14:33 41.21961 16.37247 13391 ft 352 kts 224°
2026-04-29 14:34 41.20231 16.35066 12780 ft 341 kts 230°
2026-04-29 14:34 41.18940 16.32511 12233 ft 327 kts 244°
2026-04-29 14:34 41.17928 16.29858 11732 ft 317 kts 245°
2026-04-29 14:34 41.16956 16.27290 11280 ft 307 kts 244°
2026-04-29 14:35 41.16009 16.24793 10870 ft 297 kts 245°
2026-04-29 14:35 41.15125 16.22368 10494 ft 286 kts 250°
2026-04-29 14:35 41.14911 16.19843 10165 ft 274 kts 282°
2026-04-29 14:35 41.15590 16.17537 10049 ft 262 kts 295°
2026-04-29 14:36 41.16366 16.15437 9844 ft 253 kts 295°
2026-04-29 14:36 41.17119 16.13366 9655 ft 247 kts 293°
2026-04-29 14:36 41.17585 16.11193 9324 ft 245 kts 270°
2026-04-29 14:36 41.17084 16.09085 9054 ft 244 kts 234°
2026-04-29 14:37 41.15707 16.07789 8710 ft 250 kts 197°
2026-04-29 14:37 41.13985 16.07898 8629 ft 255 kts 160°
2026-04-29 14:37 41.12518 16.09265 8610 ft 262 kts 138°
2026-04-29 14:37 41.11182 16.10955 8570 ft 267 kts 139°
2026-04-29 14:38 41.09823 16.12643 8399 ft 268 kts 139°
2026-04-29 14:38 41.08457 16.14332 8131 ft 268 kts 139°
2026-04-29 14:38 41.07093 16.16009 7935 ft 266 kts 139°
2026-04-29 14:38 41.05744 16.17666 7816 ft 263 kts 139°
2026-04-29 14:39 41.04405 16.19314 7670 ft 262 kts 139°
2026-04-29 14:39 41.03085 16.20935 7561 ft 262 kts 139°
2026-04-29 14:39 41.01751 16.22566 7431 ft 261 kts 139°
2026-04-29 14:39 41.00592 16.24392 7242 ft 259 kts 118°
2026-04-29 14:40 41.00116 16.26663 6983 ft 258 kts 91°
2026-04-29 14:40 41.00436 16.28965 6776 ft 252 kts 68°
2026-04-29 14:40 41.01099 16.31104 6518 ft 251 kts 67°
2026-04-29 14:40 41.01750 16.33265 6170 ft 254 kts 68°
2026-04-29 14:41 41.02385 16.35453 5829 ft 255 kts 68°
2026-04-29 14:41 41.03000 16.37608 5519 ft 245 kts 69°
2026-04-29 14:41 41.03591 16.39695 5198 ft 239 kts 69°
2026-04-29 14:41 41.04164 16.41713 4905 ft 234 kts 69°
2026-04-29 14:42 41.04732 16.43707 4675 ft 229 kts 70°
2026-04-29 14:42 41.05280 16.45642 4506 ft 218 kts 70°
2026-04-29 14:42 41.05800 16.47491 4315 ft 211 kts 70°
2026-04-29 14:42 41.06312 16.49301 4062 ft 206 kts 70°
2026-04-29 14:43 41.06780 16.50985 3825 ft 185 kts 71°
2026-04-29 14:43 41.07204 16.52483 3642 ft 165 kts 70°
2026-04-29 14:43 41.07597 16.53863 3399 ft 154 kts 71°
2026-04-29 14:43 41.07972 16.55191 3159 ft 153 kts 72°
2026-04-29 14:44 41.08338 16.56503 2972 ft 151 kts 70°
2026-04-29 14:44 41.08715 16.57790 2748 ft 152 kts 71°
2026-04-29 14:44 41.09076 16.59079 2583 ft 148 kts 73°
2026-04-29 14:44 41.09419 16.60354 2347 ft 146 kts 70°
2026-04-29 14:45 41.09776 16.61609 2177 ft 145 kts 70°
2026-04-29 14:45 41.10130 16.62852 2009 ft 143 kts 71°
2026-04-29 14:45 41.10470 16.64080 1794 ft 141 kts 70°
2026-04-29 14:45 41.10817 16.65284 1589 ft 139 kts 70°
2026-04-29 14:46 41.11154 16.66489 1440 ft 139 kts 70°
2026-04-29 14:46 41.11485 16.67683 1258 ft 137 kts 69°
2026-04-29 14:46 41.11836 16.68858 1104 ft 137 kts 69°
2026-04-29 14:46 41.12158 16.70035 900 ft 135 kts 69°
2026-04-29 14:47 41.12471 16.71204 752 ft 134 kts 70°
2026-04-29 14:47 41.12796 16.72346 587 ft 133 kts 70°
2026-04-29 14:47 41.13127 16.73500 371 ft 134 kts 69°
2026-04-29 14:47 41.13450 16.74646 219 ft 132 kts 69°
2026-04-29 14:48 41.13732 16.75634 169 ft 82 kts 69°
2026-04-29 14:48 41.13866 16.76108 154 ft 46 kts 69°
2026-04-29 14:48 41.13981 16.76511 140 ft 26 kts 72°
2026-04-29 14:48 41.13995 16.76659 137 ft 11 kts 105°
2026-04-29 14:49 41.13953 16.76757 136 ft 14 kts 115°
2026-04-29 14:49 41.13935 16.76801 135 ft 0 kts 137°
2026-04-29 14:49 41.13933 16.76803 135 ft 2 kts 137°
2026-04-29 14:50 41.13906 16.76813 134 ft 6 kts 195°
2026-04-29 14:50 41.13866 16.76777 134 ft 8 kts 224°
2026-04-29 14:50 41.13832 16.76760 135 ft 3 kts 167°
2026-04-29 14:50 41.13800 16.76769 135 ft 6 kts 167°
2026-04-29 14:51 41.13770 16.76751 136 ft 5 kts 232°
2026-04-29 14:51 41.13752 16.76716 138 ft 4 kts 234°
2026-04-29 14:51 41.13738 16.76705 138 ft 2 kts 203°
2026-04-29 14:51 41.13727 16.76701 139 ft 1 kts 184°
2026-04-29 14:52 41.13708 16.76705 140 ft 5 kts 172°
2026-04-29 14:52 41.13679 16.76705 141 ft 0 kts 194°